This demonstration page uses our WeatherBlox Daily Observations layout. Learn more.

41.55636, -103.73856

Hourly Observations for January 1, 2019

Temp ( °F °C ) Dew Point ( °F °C ) Humidity (%) Winds ( mph kmh ) Pressure ( in mb ) Visibility ( mi km ) Precip ( " mm )
12:58 am 00:58 Mostly Cloudy with Heavy Snow 4 -15.6 0 -17.6 85 85 N 13 20 30.49 1033 0.25 0.402335 N/A
1:58 am 01:58 Mostly Cloudy with Scattered Snow Showers 2 -16.5 -1 -18.4 85 85 N 16 26 30.5 1033 5 8.0467 N/A
2:58 am 02:58 Mostly Cloudy with Scattered Snow Showers 2 -16.9 -2 -18.9 85 85 N 13 20 30.53 1034 5 8.0467 N/A
3:58 am 03:58 Mostly Cloudy with Scattered Snow Showers 1 -17.1 -2 -19.1 85 85 N 8 13 30.53 1034 2.75 4.425685 N/A
4:58 am 04:58 Mostly Cloudy with Scattered Snow Showers 1 -17.1 -3 -19.2 84 84 N 6 9 30.71 1040 7 11.26538 N/A
5:58 am 05:58 Cloudy with Light Snow 1 -17 -2 -19 85 85 Calm 30.71 1040 7 11.26538 N/A
6:58 am 06:58 Cloudy with Light Snow 2 -16.9 -2 -19 84 84 Calm 30.71 1040 3 4.82802 N/A
7:58 am 07:58 Cloudy with Light Snow 2 -16.9 -2 -19 84 84 Calm 30.55 1034 3 4.82802 N/A
8:58 am 08:58 Partly Cloudy with Scattered Snow Showers 0 -17.8 -4 -20.1 82 82 Calm 30.55 1035 10 16.0934 N/A
9:58 am 09:58 Clear -3 -19.6 -7 -21.8 83 83 Calm 30.55 1035 10 16.0934 N/A
10:58 am 10:58 Clear -3 -19.3 -7 -21.8 81 81 Calm 30.52 1034 10 16.0934 N/A
11:58 am 11:58 Clear -3 -19.5 -8 -22.3 79 79 Calm 30.52 1034 10 16.0934 N/A
12:58 pm 12:58 Clear -5 -20.6 -10 -23.1 81 81 Calm 30.52 1033 7 11.26538 N/A
1:58 pm 13:58 Mostly Clear -6 -21 -10 -23.6 80 80 SSW 5 7 30.54 1034 10 16.0934 N/A
2:58 pm 14:58 Sunny -7 -21.8 -12 -24.3 80 80 SSW 6 9 30.53 1034 10 16.0934 N/A
3:58 pm 15:58 Sunny -2 -18.7 -5 -20.8 84 84 SSW 6 9 30.54 1034 10 16.0934 N/A
4:58 pm 16:58 Sunny 1 -17.3 -3 -19.4 84 84 SSW 8 13 30.49 1033 10 16.0934 N/A
5:58 pm 17:58 Sunny 2 -16.6 -1 -18.6 85 85 SSW 15 24 30.46 1031 10 16.0934 N/A
6:58 pm 18:58 Sunny 4 -15.8 0 -17.8 85 85 SSW 15 24 30.4 1030 10 16.0934 N/A
7:58 pm 19:58 Sunny with Light Snow Showers 6 -14.6 2 -16.5 86 86 SW 17 28 30.36 1028 10 16.0934 N/A
8:58 pm 20:58 Sunny 7 -13.7 0 -17.7 72 72 SW 17 28 30.33 1027 10 16.0934 N/A
9:58 pm 21:58 Sunny 9 -13 1 -17.5 69 69 SW 16 26 30.31 1026 10 16.0934 N/A
10:58 pm 22:58 Sunny 8 -13.1 1 -17.5 70 70 SW 15 24 30.31 1026 10 16.0934 N/A
11:58 pm 23:58 Clear 5 -15.2 -1 -18.6 75 75 WSW 9 15 30.33 1027 10 16.0934 N/A

Powered by AerisWeather